Year,Month,Day,Hour,Minute,Value (Times are PST for temperature in C)
2017,05,27,00,00,15.00
2017,05,27,00,01,15.00
2017,05,27,00,02,15.00
2017,05,27,00,03,15.00
2017,05,27,00,04,15.00
2017,05,27,00,05,15.00
2017,05,27,00,06,15.00
2017,05,27,00,07,15.00
2017,05,27,00,08,15.00
2017,05,27,00,09,15.00
2017,05,27,00,10,15.00
2017,05,27,00,11,15.00
2017,05,27,00,12,15.00
2017,05,27,00,13,15.00
2017,05,27,00,14,15.00
2017,05,27,00,15,14.90
2017,05,27,00,16,14.90
2017,05,27,00,17,14.90
2017,05,27,00,18,14.90
2017,05,27,00,19,14.80
2017,05,27,00,20,14.80
2017,05,27,00,21,14.80
2017,05,27,00,22,14.80
2017,05,27,00,23,14.80
2017,05,27,00,24,14.80
2017,05,27,00,25,14.80
2017,05,27,00,26,14.80
2017,05,27,00,27,14.80
2017,05,27,00,28,14.80
2017,05,27,00,29,14.80
2017,05,27,00,30,14.80
2017,05,27,00,31,14.80
2017,05,27,00,32,14.80
2017,05,27,00,33,14.80
2017,05,27,00,34,14.80
2017,05,27,00,35,14.80
2017,05,27,00,36,14.80
2017,05,27,00,37,14.70
2017,05,27,00,38,14.70
2017,05,27,00,39,14.70
2017,05,27,00,40,14.70
2017,05,27,00,41,14.70
2017,05,27,00,42,14.70
2017,05,27,00,43,14.70
2017,05,27,00,44,14.70
2017,05,27,00,45,14.70
2017,05,27,00,46,14.70
2017,05,27,00,47,14.70
2017,05,27,00,48,14.70
2017,05,27,00,49,14.60
2017,05,27,00,50,14.60
2017,05,27,00,51,14.60
2017,05,27,00,52,14.60
2017,05,27,00,53,14.60
2017,05,27,00,54,14.60
2017,05,27,00,55,14.50
2017,05,27,00,56,14.50
2017,05,27,00,57,14.50
2017,05,27,00,58,14.50
2017,05,27,00,59,14.50
2017,05,27,01,00,14.50
2017,05,27,01,01,14.50
2017,05,27,01,02,14.40
2017,05,27,01,03,14.50
2017,05,27,01,04,14.40
2017,05,27,01,05,14.40
2017,05,27,01,06,14.40
2017,05,27,01,07,14.40
2017,05,27,01,08,14.40
2017,05,27,01,09,14.40
2017,05,27,01,10,14.40
2017,05,27,01,11,14.40
2017,05,27,01,12,14.40
2017,05,27,01,13,14.40
2017,05,27,01,14,14.40
2017,05,27,01,15,14.40
2017,05,27,01,16,14.40
2017,05,27,01,17,14.40
2017,05,27,01,18,14.40
2017,05,27,01,19,14.40
2017,05,27,01,20,14.40
2017,05,27,01,21,14.30
2017,05,27,01,22,14.30
2017,05,27,01,23,14.30
2017,05,27,01,24,14.30
2017,05,27,01,25,14.30
2017,05,27,01,26,14.30
2017,05,27,01,27,14.30
2017,05,27,01,28,14.30
2017,05,27,01,29,14.30
2017,05,27,01,30,14.30
2017,05,27,01,31,14.30
2017,05,27,01,32,14.30
2017,05,27,01,33,14.30
2017,05,27,01,34,14.30
2017,05,27,01,35,14.30
2017,05,27,01,36,14.30
2017,05,27,01,37,14.30
2017,05,27,01,38,14.30
2017,05,27,01,39,14.30
2017,05,27,01,40,14.30
2017,05,27,01,41,14.20
2017,05,27,01,42,14.20
2017,05,27,01,43,14.20
2017,05,27,01,44,14.20
2017,05,27,01,45,14.20
2017,05,27,01,46,14.20
2017,05,27,01,47,14.20
2017,05,27,01,48,14.20
2017,05,27,01,49,14.20
2017,05,27,01,50,14.20
2017,05,27,01,51,14.20
2017,05,27,01,52,14.20
2017,05,27,01,53,14.20
2017,05,27,01,54,14.20
2017,05,27,01,55,14.20
2017,05,27,01,56,14.20
2017,05,27,01,57,14.20
2017,05,27,01,58,14.20
2017,05,27,01,59,14.20
2017,05,27,02,00,14.10
2017,05,27,02,01,14.10
2017,05,27,02,02,14.10
2017,05,27,02,03,14.10
2017,05,27,02,04,14.10
2017,05,27,02,05,14.10
2017,05,27,02,06,14.10
2017,05,27,02,07,14.10
2017,05,27,02,08,14.10
2017,05,27,02,09,14.10
2017,05,27,02,10,14.10
2017,05,27,02,11,14.10
2017,05,27,02,12,14.10
2017,05,27,02,13,14.00
2017,05,27,02,14,14.00
2017,05,27,02,15,14.00
2017,05,27,02,16,14.00
2017,05,27,02,17,14.00
2017,05,27,02,18,13.90
2017,05,27,02,19,13.90
2017,05,27,02,20,13.90
2017,05,27,02,21,13.90
2017,05,27,02,22,13.90
2017,05,27,02,23,13.90
2017,05,27,02,24,13.90
2017,05,27,02,25,13.90
2017,05,27,02,26,13.90
2017,05,27,02,27,13.90
2017,05,27,02,28,13.80
2017,05,27,02,29,13.80
2017,05,27,02,30,13.80
2017,05,27,02,31,13.80
2017,05,27,02,32,13.80
2017,05,27,02,33,13.80
2017,05,27,02,34,13.80
2017,05,27,02,35,13.80
2017,05,27,02,36,13.70
2017,05,27,02,37,13.70
2017,05,27,02,38,13.70
2017,05,27,02,39,13.80
2017,05,27,02,40,13.70
2017,05,27,02,41,13.70
2017,05,27,02,42,13.80
2017,05,27,02,43,13.80
2017,05,27,02,44,13.80
2017,05,27,02,45,13.70
2017,05,27,02,46,13.70
2017,05,27,02,47,13.70
2017,05,27,02,48,13.60
2017,05,27,02,49,13.60
2017,05,27,02,50,13.60
2017,05,27,02,51,13.50
2017,05,27,02,52,13.50
2017,05,27,02,53,13.40
2017,05,27,02,54,13.40
2017,05,27,02,55,13.50
2017,05,27,02,56,13.50
2017,05,27,02,57,13.40
2017,05,27,02,58,13.50
2017,05,27,02,59,13.50
2017,05,27,03,00,13.50
2017,05,27,03,01,13.50
2017,05,27,03,02,13.40
2017,05,27,03,03,13.40
2017,05,27,03,04,13.50
2017,05,27,03,05,13.50
2017,05,27,03,06,13.50
2017,05,27,03,07,13.50
2017,05,27,03,08,13.50
2017,05,27,03,09,13.50
2017,05,27,03,10,13.50
2017,05,27,03,11,13.50
2017,05,27,03,12,13.50
2017,05,27,03,13,13.50
2017,05,27,03,14,13.50
2017,05,27,03,15,13.50
2017,05,27,03,16,13.50
2017,05,27,03,17,13.50
2017,05,27,03,18,13.40
2017,05,27,03,19,13.50
2017,05,27,03,20,13.50
2017,05,27,03,21,13.50
2017,05,27,03,22,13.40
2017,05,27,03,23,13.40
2017,05,27,03,24,13.40
2017,05,27,03,25,13.40
2017,05,27,03,26,13.40
2017,05,27,03,27,13.40
2017,05,27,03,28,13.40
2017,05,27,03,29,13.40
2017,05,27,03,30,13.40
2017,05,27,03,31,13.40
2017,05,27,03,32,13.40
2017,05,27,03,33,13.40
2017,05,27,03,34,13.30
2017,05,27,03,35,13.30
2017,05,27,03,36,13.30
2017,05,27,03,37,13.30
2017,05,27,03,38,13.30
2017,05,27,03,39,13.30
2017,05,27,03,40,13.30
2017,05,27,03,41,13.30
2017,05,27,03,42,13.30
2017,05,27,03,43,13.30
2017,05,27,03,44,13.30
2017,05,27,03,45,13.30
2017,05,27,03,46,13.30
2017,05,27,03,47,13.30
2017,05,27,03,48,13.30
2017,05,27,03,49,13.30
2017,05,27,03,50,13.30
2017,05,27,03,51,13.30
2017,05,27,03,52,13.30
2017,05,27,03,53,13.30
2017,05,27,03,54,13.20
2017,05,27,03,55,13.20
2017,05,27,03,56,13.20
2017,05,27,03,57,13.20
2017,05,27,03,58,13.20
2017,05,27,03,59,13.10
2017,05,27,04,00,13.10
2017,05,27,04,01,13.10
2017,05,27,04,02,13.10
2017,05,27,04,03,13.10
2017,05,27,04,04,13.10
2017,05,27,04,05,13.10
2017,05,27,04,06,13.10
2017,05,27,04,07,13.10
2017,05,27,04,08,13.10
2017,05,27,04,09,13.10
2017,05,27,04,10,13.10
2017,05,27,04,11,13.10
2017,05,27,04,12,13.10
2017,05,27,04,13,13.10
2017,05,27,04,14,13.10
2017,05,27,04,15,13.10
2017,05,27,04,16,13.10
2017,05,27,04,17,13.10
2017,05,27,04,18,13.00
2017,05,27,04,19,13.00
2017,05,27,04,20,13.00
2017,05,27,04,21,13.00
2017,05,27,04,22,13.00
2017,05,27,04,23,12.90
2017,05,27,04,24,12.90
2017,05,27,04,25,12.90
2017,05,27,04,26,12.90
2017,05,27,04,27,12.90
2017,05,27,04,28,12.90
2017,05,27,04,29,12.90
2017,05,27,04,30,12.90
2017,05,27,04,31,12.90
2017,05,27,04,32,12.90
2017,05,27,04,33,12.90
2017,05,27,04,34,12.90
2017,05,27,04,35,12.90
2017,05,27,04,36,12.90
2017,05,27,04,37,12.90
2017,05,27,04,38,12.90
2017,05,27,04,39,12.90
2017,05,27,04,40,12.90
2017,05,27,04,41,12.90
2017,05,27,04,42,12.90
2017,05,27,04,43,12.80
2017,05,27,04,44,12.80
2017,05,27,04,45,12.80
2017,05,27,04,46,12.80
2017,05,27,04,47,12.80
2017,05,27,04,48,12.80
2017,05,27,04,49,12.80
2017,05,27,04,50,12.80
2017,05,27,04,51,12.80
2017,05,27,04,52,12.70
2017,05,27,04,53,12.70
2017,05,27,04,54,12.70
2017,05,27,04,55,12.70
2017,05,27,04,56,12.70
2017,05,27,04,57,12.70
2017,05,27,04,58,12.70
2017,05,27,04,59,12.70
2017,05,27,05,00,12.70
2017,05,27,05,01,12.70
2017,05,27,05,02,12.70
2017,05,27,05,03,12.70
2017,05,27,05,04,12.70
2017,05,27,05,05,12.70
2017,05,27,05,06,12.70
2017,05,27,05,07,12.70
2017,05,27,05,08,12.70
2017,05,27,05,09,12.70
2017,05,27,05,10,12.70
2017,05,27,05,11,12.70
2017,05,27,05,12,12.70
2017,05,27,05,13,12.70
2017,05,27,05,14,12.70
2017,05,27,05,15,12.70
2017,05,27,05,16,12.70
2017,05,27,05,17,12.70
2017,05,27,05,18,12.70
2017,05,27,05,19,12.70
2017,05,27,05,20,12.70
2017,05,27,05,21,12.60
2017,05,27,05,22,12.60
2017,05,27,05,23,12.60
2017,05,27,05,24,12.60
2017,05,27,05,25,12.60
2017,05,27,05,26,12.60
2017,05,27,05,27,12.50
2017,05,27,05,28,12.50
2017,05,27,05,29,12.50
2017,05,27,05,30,12.50
2017,05,27,05,31,12.50
2017,05,27,05,32,12.50
2017,05,27,05,33,12.50
2017,05,27,05,34,12.40
2017,05,27,05,35,12.50
2017,05,27,05,36,12.40
2017,05,27,05,37,12.40
2017,05,27,05,38,12.40
2017,05,27,05,39,12.40
2017,05,27,05,40,12.40
2017,05,27,05,41,12.40
2017,05,27,05,42,12.40
2017,05,27,05,43,12.40
2017,05,27,05,44,12.40
2017,05,27,05,45,12.40
2017,05,27,05,46,12.40
2017,05,27,05,47,12.40
2017,05,27,05,48,12.40
2017,05,27,05,49,12.40
2017,05,27,05,50,12.30
2017,05,27,05,51,12.30
2017,05,27,05,52,12.30
2017,05,27,05,53,12.30
2017,05,27,05,54,12.30
2017,05,27,05,55,12.30
2017,05,27,05,56,12.30
2017,05,27,05,57,12.30
2017,05,27,05,58,12.30
2017,05,27,05,59,12.30
2017,05,27,06,00,12.30
2017,05,27,06,01,12.30
2017,05,27,06,02,12.30
2017,05,27,06,03,12.30
2017,05,27,06,04,12.30
2017,05,27,06,05,12.30
2017,05,27,06,06,12.30
2017,05,27,06,07,12.30
2017,05,27,06,08,12.30
2017,05,27,06,09,12.30
2017,05,27,06,10,12.30
2017,05,27,06,11,12.30
2017,05,27,06,12,12.30
2017,05,27,06,13,12.30
2017,05,27,06,14,12.30
2017,05,27,06,15,12.30
2017,05,27,06,16,12.30
2017,05,27,06,17,12.30
2017,05,27,06,18,12.30
2017,05,27,06,19,12.30
2017,05,27,06,20,12.30
2017,05,27,06,21,12.20
2017,05,27,06,22,12.20
2017,05,27,06,23,12.20
2017,05,27,06,24,12.20
2017,05,27,06,25,12.20
2017,05,27,06,26,12.20
2017,05,27,06,27,12.20
2017,05,27,06,28,12.30
2017,05,27,06,29,12.30
2017,05,27,06,30,12.30
2017,05,27,06,31,12.30
2017,05,27,06,32,12.30
2017,05,27,06,33,12.30
2017,05,27,06,34,12.30
2017,05,27,06,35,12.40
2017,05,27,06,36,12.40
2017,05,27,06,37,12.40
2017,05,27,06,38,12.40
2017,05,27,06,39,12.40
2017,05,27,06,40,12.40
2017,05,27,06,41,12.40
2017,05,27,06,42,12.40
2017,05,27,06,43,12.50
2017,05,27,06,44,12.50
2017,05,27,06,45,12.50
2017,05,27,06,46,12.50
2017,05,27,06,47,12.60
2017,05,27,06,48,12.60
2017,05,27,06,49,12.60
2017,05,27,06,50,12.70
2017,05,27,06,51,12.70
2017,05,27,06,52,12.70
2017,05,27,06,53,12.80
2017,05,27,06,54,12.80
2017,05,27,06,55,12.90
2017,05,27,06,56,12.90
2017,05,27,06,57,13.00
2017,05,27,06,58,13.00
2017,05,27,06,59,13.10
2017,05,27,07,00,13.20
2017,05,27,07,01,13.30
2017,05,27,07,02,13.30
2017,05,27,07,03,13.40
2017,05,27,07,04,13.50
2017,05,27,07,05,13.60
2017,05,27,07,06,13.70
2017,05,27,07,07,13.80
2017,05,27,07,08,14.00
2017,05,27,07,09,14.10
2017,05,27,07,10,14.20
2017,05,27,07,11,14.30
2017,05,27,07,12,14.40
2017,05,27,07,13,14.60
2017,05,27,07,14,14.70
2017,05,27,07,15,14.90
2017,05,27,07,16,15.00
2017,05,27,07,17,15.00
2017,05,27,07,18,15.10
2017,05,27,07,19,15.20
2017,05,27,07,20,15.30
2017,05,27,07,21,15.30
2017,05,27,07,22,15.40
2017,05,27,07,23,15.50
2017,05,27,07,24,15.50
2017,05,27,07,25,15.60
2017,05,27,07,26,15.70
2017,05,27,07,27,15.70
2017,05,27,07,28,15.80
2017,05,27,07,29,15.80
2017,05,27,07,30,15.90
2017,05,27,07,31,16.00
2017,05,27,07,32,15.90
2017,05,27,07,33,15.90
2017,05,27,07,34,16.00
2017,05,27,07,35,16.00
2017,05,27,07,36,16.10
2017,05,27,07,37,16.10
2017,05,27,07,38,16.20
2017,05,27,07,39,16.30
2017,05,27,07,40,16.30
2017,05,27,07,41,16.40
2017,05,27,07,42,16.50
2017,05,27,07,43,16.50
2017,05,27,07,44,16.60
2017,05,27,07,45,16.70
2017,05,27,07,46,16.70
2017,05,27,07,47,16.80
2017,05,27,07,48,16.80
2017,05,27,07,49,16.90
2017,05,27,07,50,17.00
2017,05,27,07,51,17.00
2017,05,27,07,52,17.10
2017,05,27,07,53,17.20
2017,05,27,07,54,17.30
2017,05,27,07,55,17.30
2017,05,27,07,56,17.40
2017,05,27,07,57,17.50
2017,05,27,07,58,17.60
2017,05,27,07,59,17.60
2017,05,27,08,00,17.70
2017,05,27,08,01,17.70
2017,05,27,08,02,17.80
2017,05,27,08,03,17.80
2017,05,27,08,04,17.80
2017,05,27,08,05,17.80
2017,05,27,08,06,17.80
2017,05,27,08,07,17.90
2017,05,27,08,08,18.00
2017,05,27,08,09,18.00
2017,05,27,08,10,18.20
2017,05,27,08,11,18.20
2017,05,27,08,12,18.30
2017,05,27,08,13,18.40
2017,05,27,08,14,18.50
2017,05,27,08,15,18.60
2017,05,27,08,16,18.60
2017,05,27,08,17,18.70
2017,05,27,08,18,18.70
2017,05,27,08,19,18.70
2017,05,27,08,20,18.70
2017,05,27,08,21,18.70
2017,05,27,08,22,18.70
2017,05,27,08,23,18.70
2017,05,27,08,24,18.70
2017,05,27,08,25,18.60
2017,05,27,08,26,18.60
2017,05,27,08,27,18.60
2017,05,27,08,28,18.60
2017,05,27,08,29,18.50
2017,05,27,08,30,18.50
2017,05,27,08,31,18.40
2017,05,27,08,32,18.40
2017,05,27,08,33,18.40
2017,05,27,08,34,18.40
2017,05,27,08,35,18.40
2017,05,27,08,36,18.40
2017,05,27,08,37,18.40
2017,05,27,08,38,18.40
2017,05,27,08,39,18.50
2017,05,27,08,40,18.50
2017,05,27,08,41,18.50
2017,05,27,08,42,18.40
2017,05,27,08,43,18.50
2017,05,27,08,44,18.50
2017,05,27,08,45,18.50
2017,05,27,08,46,18.60
2017,05,27,08,47,18.60
2017,05,27,08,48,18.60
2017,05,27,08,49,18.70
2017,05,27,08,50,18.70
2017,05,27,08,51,18.80
2017,05,27,08,52,18.80
2017,05,27,08,53,18.90
2017,05,27,08,54,18.90
2017,05,27,08,55,18.90
2017,05,27,08,56,18.90
2017,05,27,08,57,18.90
2017,05,27,08,58,18.90
2017,05,27,08,59,19.00
2017,05,27,09,00,19.00
2017,05,27,09,01,19.00
2017,05,27,09,02,19.10
2017,05,27,09,03,19.10
2017,05,27,09,04,19.10
2017,05,27,09,05,19.20
2017,05,27,09,06,19.20
2017,05,27,09,07,19.20
2017,05,27,09,08,19.20
2017,05,27,09,09,19.30
2017,05,27,09,10,19.20
2017,05,27,09,11,19.30
2017,05,27,09,12,19.30
2017,05,27,09,13,19.30
2017,05,27,09,14,19.40
2017,05,27,09,15,19.40
2017,05,27,09,16,19.40
2017,05,27,09,17,19.40
2017,05,27,09,18,19.40
2017,05,27,09,19,19.30
2017,05,27,09,20,19.30
2017,05,27,09,21,19.30
2017,05,27,09,22,19.30
2017,05,27,09,23,19.30
2017,05,27,09,24,19.30
2017,05,27,09,25,19.30
2017,05,27,09,26,19.30
2017,05,27,09,27,19.30
2017,05,27,09,28,19.30
2017,05,27,09,29,19.40
2017,05,27,09,30,19.40
2017,05,27,09,31,19.40
2017,05,27,09,32,19.40
2017,05,27,09,33,19.40
2017,05,27,09,34,19.40
2017,05,27,09,35,19.40
2017,05,27,09,36,19.40
2017,05,27,09,37,19.40
2017,05,27,09,38,19.50
2017,05,27,09,39,19.50
2017,05,27,09,40,19.50
2017,05,27,09,41,19.60
2017,05,27,09,42,19.60
2017,05,27,09,43,19.70
2017,05,27,09,44,19.70
2017,05,27,09,45,19.70
2017,05,27,09,46,19.80
2017,05,27,09,47,19.80
2017,05,27,09,48,19.90
2017,05,27,09,49,19.90
2017,05,27,09,50,20.00
2017,05,27,09,51,20.00
2017,05,27,09,52,20.10
2017,05,27,09,53,20.10
2017,05,27,09,54,20.20
2017,05,27,09,55,20.20
2017,05,27,09,56,20.30
2017,05,27,09,57,20.30
2017,05,27,09,58,20.30
2017,05,27,09,59,20.30
2017,05,27,10,00,20.30
2017,05,27,10,01,20.40
2017,05,27,10,02,20.40
2017,05,27,10,03,20.40
2017,05,27,10,04,20.30
2017,05,27,10,05,20.40
2017,05,27,10,06,20.40
2017,05,27,10,07,20.40
2017,05,27,10,08,20.50
2017,05,27,10,09,20.50
2017,05,27,10,10,20.50
2017,05,27,10,11,20.60
2017,05,27,10,12,20.60
2017,05,27,10,13,20.60
2017,05,27,10,14,20.60
2017,05,27,10,15,20.60
2017,05,27,10,16,20.70
2017,05,27,10,17,20.70
2017,05,27,10,18,20.70
2017,05,27,10,19,20.80
2017,05,27,10,20,20.80
2017,05,27,10,21,20.90
2017,05,27,10,22,21.00
2017,05,27,10,23,21.10
2017,05,27,10,24,21.20
2017,05,27,10,25,21.30
2017,05,27,10,26,21.30
2017,05,27,10,27,21.30
2017,05,27,10,28,21.30
2017,05,27,10,29,21.30
2017,05,27,10,30,21.30
2017,05,27,10,31,21.20
2017,05,27,10,32,21.20
2017,05,27,10,33,21.20
2017,05,27,10,34,21.20
2017,05,27,10,35,21.20
2017,05,27,10,36,21.20
2017,05,27,10,37,21.30
2017,05,27,10,38,21.30
2017,05,27,10,39,21.20
2017,05,27,10,40,21.20
2017,05,27,10,41,21.20
2017,05,27,10,42,21.30
2017,05,27,10,43,21.30
2017,05,27,10,44,21.20
2017,05,27,10,45,21.20
2017,05,27,10,46,21.20
2017,05,27,10,47,21.20
2017,05,27,10,48,21.20
2017,05,27,10,49,21.20
2017,05,27,10,50,21.30
2017,05,27,10,51,21.30
2017,05,27,10,52,21.30
2017,05,27,10,53,21.40
2017,05,27,10,54,21.40
2017,05,27,10,55,21.50
2017,05,27,10,56,21.60
2017,05,27,10,57,21.60
2017,05,27,10,58,21.70
2017,05,27,10,59,21.70
2017,05,27,11,00,21.70
2017,05,27,11,01,21.70
2017,05,27,11,02,21.70
2017,05,27,11,03,21.70
2017,05,27,11,04,21.70
2017,05,27,11,05,21.70
2017,05,27,11,06,21.70
2017,05,27,11,07,21.70
2017,05,27,11,08,21.80
2017,05,27,11,09,21.80
2017,05,27,11,10,21.80
2017,05,27,11,11,21.80
2017,05,27,11,12,21.80
2017,05,27,11,13,21.80
2017,05,27,11,14,21.80
2017,05,27,11,15,21.80
2017,05,27,11,16,21.90
2017,05,27,11,17,21.80
2017,05,27,11,18,21.80
2017,05,27,11,19,21.80
2017,05,27,11,20,21.80
2017,05,27,11,21,21.80
2017,05,27,11,22,21.80
2017,05,27,11,23,21.80
2017,05,27,11,24,21.90
2017,05,27,11,25,21.90
2017,05,27,11,26,22.00
2017,05,27,11,27,22.00
2017,05,27,11,28,22.00
2017,05,27,11,29,22.00
2017,05,27,11,30,22.00
2017,05,27,11,31,22.00
2017,05,27,11,32,21.90
2017,05,27,11,33,21.90
2017,05,27,11,34,21.80
2017,05,27,11,35,21.80
2017,05,27,11,36,21.80
2017,05,27,11,37,21.80
2017,05,27,11,38,21.80
2017,05,27,11,39,21.80
2017,05,27,11,40,21.80
2017,05,27,11,41,21.80
2017,05,27,11,42,21.80
2017,05,27,11,43,21.90
2017,05,27,11,44,22.00
2017,05,27,11,45,22.10
2017,05,27,11,46,22.20
2017,05,27,11,47,22.20
2017,05,27,11,48,22.20
2017,05,27,11,49,22.20
2017,05,27,11,50,22.20
2017,05,27,11,51,22.30
2017,05,27,11,52,22.30
2017,05,27,11,53,22.30
2017,05,27,11,54,22.30
2017,05,27,11,55,22.30
2017,05,27,11,56,22.30
2017,05,27,11,57,22.40
2017,05,27,11,58,22.40
2017,05,27,11,59,22.50
2017,05,27,12,00,22.60
2017,05,27,12,01,22.60
2017,05,27,12,02,22.60
2017,05,27,12,03,22.60
2017,05,27,12,04,22.60
2017,05,27,12,05,22.50
2017,05,27,12,06,22.50
2017,05,27,12,07,22.60
2017,05,27,12,08,22.60
2017,05,27,12,09,22.60
2017,05,27,12,10,22.60
2017,05,27,12,11,22.60
2017,05,27,12,12,22.60
2017,05,27,12,13,22.50
2017,05,27,12,14,22.50
2017,05,27,12,15,22.60
2017,05,27,12,16,22.60
2017,05,27,12,17,22.70
2017,05,27,12,18,22.70
2017,05,27,12,19,22.80
2017,05,27,12,20,22.80
2017,05,27,12,21,22.80
2017,05,27,12,22,22.80
2017,05,27,12,23,22.90
2017,05,27,12,24,22.90
2017,05,27,12,25,22.90
2017,05,27,12,26,22.90
2017,05,27,12,27,22.90
2017,05,27,12,28,22.90
2017,05,27,12,29,23.00
2017,05,27,12,30,23.00
2017,05,27,12,31,23.00
2017,05,27,12,32,23.10
2017,05,27,12,33,23.10
2017,05,27,12,34,23.10
2017,05,27,12,35,23.10
2017,05,27,12,36,23.20
2017,05,27,12,37,23.10
2017,05,27,12,38,23.10
2017,05,27,12,39,23.10
2017,05,27,12,40,23.10
2017,05,27,12,41,23.10
2017,05,27,12,42,23.20
2017,05,27,12,43,23.30
2017,05,27,12,44,23.40
2017,05,27,12,45,23.40
2017,05,27,12,46,23.50
2017,05,27,12,47,23.50
2017,05,27,12,48,23.60
2017,05,27,12,49,23.60
2017,05,27,12,50,23.60
2017,05,27,12,51,23.70
2017,05,27,12,52,23.70
2017,05,27,12,53,23.70
2017,05,27,12,54,23.80
2017,05,27,12,55,23.90
2017,05,27,12,56,23.90
2017,05,27,12,57,23.90
2017,05,27,12,58,23.90
2017,05,27,12,59,24.00
2017,05,27,13,00,24.00
2017,05,27,13,01,24.10
2017,05,27,13,02,24.00
2017,05,27,13,03,24.00
2017,05,27,13,04,24.00
2017,05,27,13,05,24.00
2017,05,27,13,06,24.10
2017,05,27,13,07,24.10
2017,05,27,13,08,24.10
2017,05,27,13,09,24.10
2017,05,27,13,10,24.10
2017,05,27,13,11,24.00
2017,05,27,13,12,23.90
2017,05,27,13,13,23.90
2017,05,27,13,14,24.00
2017,05,27,13,15,24.00
2017,05,27,13,16,24.10
2017,05,27,13,17,24.20
2017,05,27,13,18,24.20
2017,05,27,13,19,24.20
2017,05,27,13,20,24.30
2017,05,27,13,21,24.30
2017,05,27,13,22,24.30
2017,05,27,13,23,24.30
2017,05,27,13,24,24.30
2017,05,27,13,25,24.40
2017,05,27,13,26,24.40
2017,05,27,13,27,24.40
2017,05,27,13,28,24.30
2017,05,27,13,29,24.30
2017,05,27,13,30,24.30
2017,05,27,13,31,24.40
2017,05,27,13,32,24.40
2017,05,27,13,33,24.50
2017,05,27,13,34,24.60
2017,05,27,13,35,24.70
2017,05,27,13,36,24.70
2017,05,27,13,37,24.70
2017,05,27,13,38,24.80
2017,05,27,13,39,24.80
2017,05,27,13,40,24.90
2017,05,27,13,41,24.90
2017,05,27,13,42,25.00
2017,05,27,13,43,25.00
2017,05,27,13,44,25.10
2017,05,27,13,45,25.10
2017,05,27,13,46,25.00
2017,05,27,13,47,25.00
2017,05,27,13,48,25.00
2017,05,27,13,49,25.00
2017,05,27,13,50,25.10
2017,05,27,13,51,25.20
2017,05,27,13,52,25.20
2017,05,27,13,53,25.20
2017,05,27,13,54,25.20
2017,05,27,13,55,25.20
2017,05,27,13,56,25.20
2017,05,27,13,57,25.20
2017,05,27,13,58,25.20
2017,05,27,13,59,25.20
2017,05,27,14,00,25.30
2017,05,27,14,01,25.40
2017,05,27,14,02,25.50
2017,05,27,14,03,25.60
2017,05,27,14,04,25.70
2017,05,27,14,05,25.70
2017,05,27,14,06,25.80
2017,05,27,14,07,25.70
2017,05,27,14,08,25.70
2017,05,27,14,09,25.70
2017,05,27,14,10,25.60
2017,05,27,14,11,25.60
2017,05,27,14,12,25.50
2017,05,27,14,13,25.40
2017,05,27,14,14,25.40
2017,05,27,14,15,25.40
2017,05,27,14,16,25.40
2017,05,27,14,17,25.40
2017,05,27,14,18,25.40
2017,05,27,14,19,25.40
2017,05,27,14,20,25.40
2017,05,27,14,21,25.40
2017,05,27,14,22,25.40
2017,05,27,14,23,25.50
2017,05,27,14,24,25.50
2017,05,27,14,25,25.60
2017,05,27,14,26,25.60
2017,05,27,14,27,25.60
2017,05,27,14,28,25.60
2017,05,27,14,29,25.60
2017,05,27,14,30,25.50
2017,05,27,14,31,25.50
2017,05,27,14,32,25.50
2017,05,27,14,33,25.60
2017,05,27,14,34,25.60
2017,05,27,14,35,25.70
2017,05,27,14,36,25.70
2017,05,27,14,37,25.80
2017,05,27,14,38,25.90
2017,05,27,14,39,25.90
2017,05,27,14,40,25.90
2017,05,27,14,41,25.90
2017,05,27,14,42,25.90
2017,05,27,14,43,25.90
2017,05,27,14,44,25.90
2017,05,27,14,45,26.00
2017,05,27,14,46,26.10
2017,05,27,14,47,26.10
2017,05,27,14,48,26.10
2017,05,27,14,49,26.20
2017,05,27,14,50,26.30
2017,05,27,14,51,26.30
2017,05,27,14,52,26.30
2017,05,27,14,53,26.40
2017,05,27,14,54,26.40
2017,05,27,14,55,26.40
2017,05,27,14,56,26.40
2017,05,27,14,57,26.50
2017,05,27,14,58,26.50
2017,05,27,14,59,26.60
2017,05,27,15,00,26.70
2017,05,27,15,01,26.80
2017,05,27,15,02,26.90
2017,05,27,15,03,27.00
2017,05,27,15,04,27.00
2017,05,27,15,05,27.00
2017,05,27,15,06,27.00
2017,05,27,15,07,27.00
2017,05,27,15,08,27.00
2017,05,27,15,09,27.00
2017,05,27,15,10,27.10
2017,05,27,15,11,27.10
2017,05,27,15,12,27.00
2017,05,27,15,13,27.00
2017,05,27,15,14,27.00
2017,05,27,15,15,27.00
2017,05,27,15,16,27.00
2017,05,27,15,17,26.80
2017,05,27,15,18,26.80
2017,05,27,15,19,26.70
2017,05,27,15,20,26.60
2017,05,27,15,21,26.60
2017,05,27,15,22,26.60
2017,05,27,15,23,26.70
2017,05,27,15,24,26.70
2017,05,27,15,25,26.80
2017,05,27,15,26,26.90
2017,05,27,15,27,26.90
2017,05,27,15,28,27.00
2017,05,27,15,29,27.10
2017,05,27,15,30,27.20
2017,05,27,15,31,27.20
2017,05,27,15,32,27.20
2017,05,27,15,33,27.20
2017,05,27,15,34,27.20
2017,05,27,15,35,27.20
2017,05,27,15,36,27.20
2017,05,27,15,37,27.20
2017,05,27,15,38,27.20
2017,05,27,15,39,27.30
2017,05,27,15,40,27.30
2017,05,27,15,41,27.30
2017,05,27,15,42,27.30
2017,05,27,15,43,27.20
2017,05,27,15,44,27.20
2017,05,27,15,45,27.20
2017,05,27,15,46,27.20
2017,05,27,15,47,27.30
2017,05,27,15,48,27.30
2017,05,27,15,49,27.40
2017,05,27,15,50,27.40
2017,05,27,15,51,27.50
2017,05,27,15,52,27.60
2017,05,27,15,53,27.60
2017,05,27,15,54,27.60
2017,05,27,15,55,27.60
2017,05,27,15,56,27.60
2017,05,27,15,57,27.60
2017,05,27,15,58,27.60
2017,05,27,15,59,27.60
2017,05,27,16,00,27.70
2017,05,27,16,01,27.70
2017,05,27,16,02,27.70
2017,05,27,16,03,27.80
2017,05,27,16,04,27.90
2017,05,27,16,05,27.90
2017,05,27,16,06,27.90
2017,05,27,16,07,28.00
2017,05,27,16,08,28.00
2017,05,27,16,09,28.10
2017,05,27,16,10,28.10
2017,05,27,16,11,28.00
2017,05,27,16,12,27.90
2017,05,27,16,13,27.80
2017,05,27,16,14,27.70
2017,05,27,16,15,27.70
2017,05,27,16,16,27.70
2017,05,27,16,17,27.70
2017,05,27,16,18,27.70
2017,05,27,16,19,27.70
2017,05,27,16,20,27.80
2017,05,27,16,21,27.80
2017,05,27,16,22,27.80
2017,05,27,16,23,27.80
2017,05,27,16,24,27.80
2017,05,27,16,25,27.80
2017,05,27,16,26,27.80
2017,05,27,16,27,27.80
2017,05,27,16,28,27.90
2017,05,27,16,29,27.90
2017,05,27,16,30,27.90
2017,05,27,16,31,27.90
2017,05,27,16,32,27.90
2017,05,27,16,33,27.80
2017,05,27,16,34,27.80
2017,05,27,16,35,27.90
2017,05,27,16,36,27.90
2017,05,27,16,37,27.90
2017,05,27,16,38,27.90
2017,05,27,16,39,27.80
2017,05,27,16,40,27.80
2017,05,27,16,41,27.80
2017,05,27,16,42,27.90
2017,05,27,16,43,27.90
2017,05,27,16,44,28.00
2017,05,27,16,45,28.00
2017,05,27,16,46,28.10
2017,05,27,16,47,28.10
2017,05,27,16,48,28.10
2017,05,27,16,49,28.20
2017,05,27,16,50,28.20
2017,05,27,16,51,28.30
2017,05,27,16,52,28.30
2017,05,27,16,53,28.30
2017,05,27,16,54,28.20
2017,05,27,16,55,28.10
2017,05,27,16,56,28.10
2017,05,27,16,57,28.00
2017,05,27,16,58,27.90
2017,05,27,16,59,27.90
2017,05,27,17,00,27.90
2017,05,27,17,01,28.00
2017,05,27,17,02,28.00
2017,05,27,17,03,28.10
2017,05,27,17,04,28.10
2017,05,27,17,05,28.20
2017,05,27,17,06,28.20
2017,05,27,17,07,28.30
2017,05,27,17,08,28.40
2017,05,27,17,09,28.40
2017,05,27,17,10,28.40
2017,05,27,17,11,28.50
2017,05,27,17,12,28.50
2017,05,27,17,13,28.50
2017,05,27,17,14,28.50
2017,05,27,17,15,28.50
2017,05,27,17,16,28.60
2017,05,27,17,17,28.50
2017,05,27,17,18,28.50
2017,05,27,17,19,28.40